When you browse on this site, cookies collect data to enhance your experience and personalize the content and advertising you see.
Visit our Privacy Policy to learn more. By continuing to use the site, you agree to this use of cookies and data.
  • In Hungary
  • List of Countries
  • For 7 days
  • Water Temperature
  • Weather Map
  • News
  • Weather Widgets
  • user-avatar
    Login

    Hourly Weather Hartford

    Today, 29 May, Friday

    Time Temperature Precipitation Wind Pressure Humidity
    00:00 +13°C° 0 mm 3 mps 768 mmHg 81%
    01:00 +12°C° 0 mm 3 mps 768 mmHg 79%
    02:00 +13°C° 0 mm 2 mps 768 mmHg 77%
    03:00 +12°C° 0 mm 2 mps 768 mmHg 75%
    04:00 +12°C° 0 mm 2 mps 768 mmHg 71%
    05:00 +13°C° 0 mm 2 mps 768 mmHg 66%
    06:00 +14°C° 0 mm 2 mps 768 mmHg 63%
    07:00 +14°C° 0 mm 3 mps 768 mmHg 59%
    08:00 +16°C° 0 mm 3 mps 768 mmHg 55%
    09:00 +18°C° 0 mm 4 mps 768 mmHg 51%
    10:00 +19°C° 0 mm 4 mps 767 mmHg 49%
    11:00 +20°C° 0 mm 4 mps 767 mmHg 48%
    12:00 +22°C° 0 mm 4 mps 767 mmHg 50%
    13:00 +22°C° 0 mm 4 mps 766 mmHg 51%
    14:00 +22°C° 0 mm 4 mps 766 mmHg 52%
    15:00 +22°C° 0 mm 4 mps 765 mmHg 52%
    16:00 +22°C° 0 mm 4 mps 765 mmHg 57%
    17:00 +22°C° 0 mm 3 mps 765 mmHg 61%
    18:00 +21°C° 0 mm 3 mps 765 mmHg 65%
    19:00 +19°C° 0 mm 3 mps 765 mmHg 70%
    20:00 +17°C° 0 mm 3 mps 765 mmHg 75%
    21:00 +15°C° 0 mm 4 mps 765 mmHg 80%
    22:00 +14°C° 0 mm 3 mps 765 mmHg 80%
    23:00 +13°C° 0 mm 3 mps 766 mmHg 80%

    Tomorrow, 30 May, Saturday

    Time Temperature Precipitation Wind Pressure Humidity
    00:00 +12°C° 0 mm 3 mps 766 mmHg 80%
    01:00 +11°C° 0 mm 3 mps 766 mmHg 80%
    02:00 +10°C° 0 mm 3 mps 766 mmHg 80%
    03:00 +9°C° 0 mm 2 mps 765 mmHg 79%
    04:00 +10°C° 0 mm 2 mps 765 mmHg 75%
    05:00 +10°C° 0 mm 2 mps 765 mmHg 71%
    06:00 +12°C° 0 mm 2 mps 765 mmHg 66%
    07:00 +14°C° 0 mm 2 mps 765 mmHg 61%
    08:00 +14°C° 0 mm 3 mps 765 mmHg 56%
    09:00 +17°C° 0 mm 3 mps 765 mmHg 50%
    10:00 +18°C° 0 mm 3 mps 765 mmHg 51%
    11:00 +20°C° 0 mm 4 mps 765 mmHg 52%
    12:00 +21°C° 0 mm 4 mps 764 mmHg 53%
    13:00 +21°C° 0 mm 4 mps 764 mmHg 53%
    14:00 +22°C° 0 mm 4 mps 764 mmHg 54%
    15:00 +22°C° 0 mm 4 mps 764 mmHg 55%
    16:00 +21°C° 0.1 mm 4 mps 764 mmHg 59%
    17:00 +21°C° 0.1 mm 4 mps 763 mmHg 64%
    18:00 +20°C° 0.1 mm 4 mps 763 mmHg 68%
    19:00 +18°C° 0 mm 4 mps 764 mmHg 70%
    20:00 +16°C° 0 mm 5 mps 764 mmHg 73%
    21:00 +15°C° 0 mm 5 mps 764 mmHg 75%
    22:00 +14°C° 0 mm 4 mps 765 mmHg 77%
    23:00 +13°C° 0 mm 4 mps 765 mmHg 79%

    Day after tomorrow, 31 May, Sunday

    Time Temperature Precipitation Wind Pressure Humidity
    00:00 +12°C° 0 mm 4 mps 765 mmHg 81%
    01:00 +11°C° 0 mm 3 mps 765 mmHg 82%
    02:00 +11°C° 0 mm 3 mps 765 mmHg 83%
    03:00 +10°C° 0 mm 3 mps 765 mmHg 83%
    04:00 +11°C° 0 mm 3 mps 765 mmHg 80%
    05:00 +11°C° 0 mm 3 mps 765 mmHg 77%
    06:00 +12°C° 0 mm 3 mps 765 mmHg 73%
    07:00 +14°C° 0 mm 3 mps 765 mmHg 69%
    08:00 +17°C° 0 mm 4 mps 765 mmHg 65%
    09:00 +18°C° 0 mm 4 mps 765 mmHg 61%
    10:00 +19°C° 0 mm 4 mps 765 mmHg 58%
    11:00 +20°C° 0 mm 4 mps 765 mmHg 55%
    12:00 +21°C° 0 mm 4 mps 765 mmHg 53%
    13:00 +22°C° 0 mm 4 mps 765 mmHg 53%
    14:00 +22°C° 0 mm 4 mps 765 mmHg 54%
    15:00 +22°C° 0 mm 4 mps 765 mmHg 54%
    16:00 +21°C° 0.1 mm 4 mps 765 mmHg 58%
    17:00 +21°C° 0.1 mm 4 mps 765 mmHg 62%
    18:00 +20°C° 0.1 mm 4 mps 765 mmHg 66%
    19:00 +18°C° 0 mm 4 mps 765 mmHg 69%
    20:00 +17°C° 0 mm 4 mps 766 mmHg 72%
    21:00 +14°C° 0 mm 4 mps 766 mmHg 75%
    22:00 +13°C° 0 mm 3 mps 766 mmHg 77%
    23:00 +12°C° 0 mm 3 mps 766 mmHg 79%

    1 June, Monday

    Time Temperature Precipitation Wind Pressure Humidity
    00:00 +11°C° 0 mm 3 mps 766 mmHg 81%
    01:00 +12°C° 0 mm 2 mps 766 mmHg 82%
    02:00 +10°C° 0 mm 2 mps 766 mmHg 84%
    03:00 +11°C° 0 mm 1 mps 766 mmHg 85%
    04:00 +12°C° 0 mm 1 mps 766 mmHg 82%
    05:00 +12°C° 0 mm 1 mps 766 mmHg 79%
    06:00 +13°C° 0 mm 2 mps 767 mmHg 77%
    07:00 +15°C° 0 mm 2 mps 766 mmHg 70%
    08:00 +16°C° 0 mm 3 mps 766 mmHg 64%
    09:00 +18°C° 0 mm 3 mps 766 mmHg 58%
    10:00 +19°C° 0 mm 3 mps 766 mmHg 56%
    11:00 +20°C° 0 mm 3 mps 766 mmHg 55%
    12:00 +21°C° 0 mm 3 mps 766 mmHg 53%
    13:00 +21°C° 0 mm 3 mps 766 mmHg 53%
    14:00 +22°C° 0 mm 3 mps 765 mmHg 53%
    15:00 +22°C° 0 mm 3 mps 765 mmHg 53%
    16:00 +21°C° 0 mm 3 mps 765 mmHg 55%
    17:00 +20°C° 0 mm 3 mps 765 mmHg 57%
    18:00 +20°C° 0 mm 3 mps 765 mmHg 59%
    19:00 +18°C° 0 mm 3 mps 765 mmHg 63%
    20:00 +16°C° 0 mm 3 mps 765 mmHg 68%
    21:00 +13°C° 0 mm 3 mps 765 mmHg 72%
    22:00 +13°C° 0 mm 2 mps 765 mmHg 73%
    23:00 +12°C° 0 mm 2 mps 765 mmHg 75%

    2 June, Tuesday

    Time Temperature Precipitation Wind Pressure Humidity
    00:00 +11°C° 0 mm 1 mps 765 mmHg 76%
    01:00 +11°C° 0 mm 1 mps 765 mmHg 77%
    02:00 +10°C° 0 mm 1 mps 764 mmHg 77%
    03:00 +10°C° 0 mm 1 mps 764 mmHg 78%
    04:00 +10°C° 0 mm 0 mps 764 mmHg 75%
    05:00 +11°C° 0 mm 0 mps 764 mmHg 73%
    06:00 +12°C° 0 mm 0 mps 763 mmHg 70%
    07:00 +13°C° 0 mm 0 mps 763 mmHg 64%
    08:00 +15°C° 0 mm 0 mps 763 mmHg 57%
    09:00 +17°C° 0 mm 0 mps 762 mmHg 51%
    10:00 +21°C° 0 mm 1 mps 762 mmHg 47%
    11:00 +22°C° 0 mm 1 mps 761 mmHg 44%
    12:00 +23°C° 0 mm 1 mps 761 mmHg 40%
    13:00 +23°C° 0 mm 2 mps 760 mmHg 42%
    14:00 +23°C° 0 mm 2 mps 759 mmHg 43%
    15:00 +22°C° 0 mm 3 mps 759 mmHg 44%
    16:00 +21°C° 0 mm 3 mps 758 mmHg 49%
    17:00 +20°C° 0 mm 3 mps 758 mmHg 54%
    18:00 +19°C° 0 mm 3 mps 757 mmHg 59%
    19:00 +18°C° 0 mm 3 mps 757 mmHg 63%
    20:00 +16°C° 0 mm 3 mps 757 mmHg 67%
    21:00 +14°C° 0 mm 3 mps 757 mmHg 71%
    22:00 +13°C° 0 mm 3 mps 757 mmHg 75%
    23:00 +13°C° 0 mm 3 mps 756 mmHg 80%

    3 June, Wednesday

    Time Temperature Precipitation Wind Pressure Humidity
    00:00 +13°C° 0 mm 3 mps 756 mmHg 84%
    01:00 +13°C° 0.2 mm 4 mps 756 mmHg 86%
    02:00 +12°C° 0.2 mm 4 mps 755 mmHg 87%
    03:00 +12°C° 0.2 mm 4 mps 755 mmHg 89%
    04:00 +12°C° 0.4 mm 4 mps 755 mmHg 89%
    05:00 +12°C° 0.4 mm 4 mps 755 mmHg 89%
    06:00 +12°C° 0.4 mm 4 mps 755 mmHg 89%
    07:00 +12°C° 0.4 mm 4 mps 755 mmHg 88%
    08:00 +12°C° 0.4 mm 4 mps 755 mmHg 87%
    09:00 +12°C° 0.4 mm 4 mps 755 mmHg 86%
    10:00 +12°C° 0.1 mm 4 mps 755 mmHg 84%
    11:00 +13°C° 0.1 mm 5 mps 755 mmHg 82%
    12:00 +13°C° 0.1 mm 6 mps 755 mmHg 80%
    13:00 +13°C° 0 mm 6 mps 755 mmHg 77%
    14:00 +12°C° 0 mm 7 mps 755 mmHg 74%
    15:00 +14°C° 0 mm 7 mps 755 mmHg 72%
    16:00 +12°C° 0 mm 7 mps 755 mmHg 71%
    17:00 +12°C° 0 mm 7 mps 756 mmHg 70%
    18:00 +11°C° 0 mm 7 mps 756 mmHg 69%
    19:00 +11°C° 0 mm 6 mps 756 mmHg 68%
    20:00 +10°C° 0 mm 6 mps 756 mmHg 67%
    21:00 +10°C° 0 mm 5 mps 756 mmHg 66%
    22:00 +9°C° 0 mm 5 mps 756 mmHg 67%
    23:00 +8°C° 0 mm 5 mps 756 mmHg 67%
    Show more